Time,TemperatureF,DewpointF,PressureIn,WindDirection,WindDirectionDegrees,WindSpeedMPH,WindSpeedGustMPH,Humidity,HourlyPrecipIn,Conditions,Clouds,dailyrainin,SoftwareType,DateUTC
2013-08-04 00:01:00,65.2,53.0,29.24,WNW,292,3.0,5.0,64,0.00,,,0.00,Rainwise IP-100,2013-08-04 05:01:00,
2013-08-04 00:06:00,65.1,53.0,29.24,WNW,292,4.0,4.0,65,0.00,,,0.00,Rainwise IP-100,2013-08-04 05:06:00,
2013-08-04 00:11:00,64.9,53.0,29.24,WNW,292,5.1,5.1,65,0.00,,,0.00,Rainwise IP-100,2013-08-04 05:11:00,
2013-08-04 00:16:00,64.7,53.0,29.24,WNW,292,4.4,5.0,66,0.00,,,0.00,Rainwise IP-100,2013-08-04 05:16:00,
2013-08-04 00:21:00,64.5,53.0,29.24,WNW,292,3.5,5.0,66,0.00,,,0.00,Rainwise IP-100,2013-08-04 05:21:00,
2013-08-04 00:26:00,64.3,53.0,29.24,West,270,5.1,5.1,66,0.00,,,0.00,Rainwise IP-100,2013-08-04 05:26:00,
2013-08-04 00:31:00,64.3,53.0,29.25,NW,315,5.1,7.0,66,0.00,,,0.00,Rainwise IP-100,2013-08-04 05:31:00,
2013-08-04 00:36:00,64.1,53.0,29.24,NNW,337,4.4,6.0,66,0.00,,,0.00,Rainwise IP-100,2013-08-04 05:36:00,
2013-08-04 00:41:00,63.9,53.0,29.24,WNW,292,3.3,7.0,66,0.00,,,0.00,Rainwise IP-100,2013-08-04 05:41:00,
2013-08-04 00:46:00,63.8,52.0,29.24,NW,315,1.9,6.0,66,0.00,,,0.00,Rainwise IP-100,2013-08-04 05:46:00,
2013-08-04 00:51:00,63.7,52.0,29.25,WNW,292,1.9,5.0,66,0.00,,,0.00,Rainwise IP-100,2013-08-04 05:51:00,
2013-08-04 00:56:00,63.5,52.0,29.24,NNE,22,2.3,4.0,66,0.00,,,0.00,Rainwise IP-100,2013-08-04 05:56:00,
2013-08-04 01:01:00,63.5,52.0,29.25,North,360,4.9,8.0,66,0.00,,,0.00,Rainwise IP-100,2013-08-04 06:01:00,
2013-08-04 01:06:00,63.5,53.0,29.25,North,360,4.0,6.0,67,0.00,,,0.00,Rainwise IP-100,2013-08-04 06:06:00,
2013-08-04 01:11:00,63.5,53.0,29.25,North,360,0.0,8.0,67,0.00,,,0.00,Rainwise IP-100,2013-08-04 06:11:00,
2013-08-04 01:16:00,63.4,53.0,29.25,North,360,4.4,6.0,67,0.00,,,0.00,Rainwise IP-100,2013-08-04 06:16:00,
2013-08-04 01:21:00,63.3,52.0,29.25,NNE,22,2.8,6.0,68,0.00,,,0.00,Rainwise IP-100,2013-08-04 06:21:00,
2013-08-04 01:26:00,63.3,53.0,29.26,NNE,22,2.8,6.0,69,0.00,,,0.00,Rainwise IP-100,2013-08-04 06:26:00,
2013-08-04 01:31:00,63.2,53.0,29.26,NNE,22,4.0,6.0,69,0.00,,,0.00,Rainwise IP-100,2013-08-04 06:31:00,
2013-08-04 01:36:00,63.0,53.0,29.26,NNE,22,4.4,6.0,69,0.00,,,0.00,Rainwise IP-100,2013-08-04 06:36:00,
2013-08-04 01:41:00,62.8,53.0,29.26,NE,45,3.5,4.0,70,0.00,,,0.00,Rainwise IP-100,2013-08-04 06:41:00,
2013-08-04 01:46:00,62.6,53.0,29.26,NNE,22,1.6,4.0,70,0.00,,,0.00,Rainwise IP-100,2013-08-04 06:46:00,
2013-08-04 01:51:00,62.4,53.0,29.26,North,360,1.4,7.0,70,0.00,,,0.00,Rainwise IP-100,2013-08-04 06:51:00,
2013-08-04 01:56:00,62.2,52.0,29.26,NNE,22,3.3,6.0,70,0.00,,,0.00,Rainwise IP-100,2013-08-04 06:56:00,
2013-08-04 02:01:00,62.2,53.0,29.26,North,360,5.1,5.1,71,0.00,,,0.00,Rainwise IP-100,2013-08-04 07:01:00,
2013-08-04 02:06:00,62.2,53.0,29.26,NW,315,1.6,5.0,71,0.00,,,0.00,Rainwise IP-100,2013-08-04 07:06:00,
2013-08-04 02:11:00,62.2,52.0,29.26,WNW,292,3.0,4.0,70,0.00,,,0.00,Rainwise IP-100,2013-08-04 07:11:00,
2013-08-04 02:16:00,62.1,52.0,29.26,North,360,3.0,4.0,70,0.00,,,0.00,Rainwise IP-100,2013-08-04 07:16:00,
2013-08-04 02:21:00,61.9,53.0,29.26,NNW,337,3.3,6.0,71,0.00,,,0.00,Rainwise IP-100,2013-08-04 07:21:00,
2013-08-04 02:26:00,61.9,53.0,29.25,NW,315,0.0,5.0,71,0.00,,,0.00,Rainwise IP-100,2013-08-04 07:26:00,
2013-08-04 02:31:00,61.8,52.0,29.25,NNE,22,5.1,7.0,71,0.00,,,0.00,Rainwise IP-100,2013-08-04 07:31:00,
2013-08-04 02:36:00,61.8,52.0,29.25,NNE,22,4.9,7.0,71,0.00,,,0.00,Rainwise IP-100,2013-08-04 07:36:00,
2013-08-04 02:41:00,61.9,53.0,29.25,NNE,22,3.5,7.0,72,0.00,,,0.00,Rainwise IP-100,2013-08-04 07:41:00,
2013-08-04 02:46:00,61.9,53.0,29.25,ENE,67,0.0,6.0,72,0.00,,,0.00,Rainwise IP-100,2013-08-04 07:46:00,
2013-08-04 02:51:00,61.7,53.0,29.25,North,360,2.3,4.0,72,0.00,,,0.00,Rainwise IP-100,2013-08-04 07:51:00,
2013-08-04 02:56:00,61.5,53.0,29.24,North,360,4.4,5.0,72,0.00,,,0.00,Rainwise IP-100,2013-08-04 07:56:00,
2013-08-04 03:01:00,61.5,53.0,29.24,NNE,22,3.3,6.0,73,0.00,,,0.00,Rainwise IP-100,2013-08-04 08:01:00,
2013-08-04 03:06:00,61.5,53.0,29.24,NNE,22,2.6,6.0,73,0.00,,,0.00,Rainwise IP-100,2013-08-04 08:06:00,
2013-08-04 03:11:00,61.3,53.0,29.24,NE,45,3.5,5.0,74,0.00,,,0.00,Rainwise IP-100,2013-08-04 08:11:00,
2013-08-04 03:16:00,61.1,53.0,29.24,NE,45,2.1,4.0,74,0.00,,,0.00,Rainwise IP-100,2013-08-04 08:16:00,
2013-08-04 03:21:00,61.2,53.0,29.24,ENE,67,1.9,4.0,75,0.00,,,0.00,Rainwise IP-100,2013-08-04 08:21:00,
2013-08-04 03:26:00,61.1,53.0,29.24,ENE,67,2.6,5.0,76,0.00,,,0.00,Rainwise IP-100,2013-08-04 08:26:00,
2013-08-04 03:31:00,60.9,53.0,29.24,ENE,67,1.9,5.0,75,0.00,,,0.00,Rainwise IP-100,2013-08-04 08:31:00,
2013-08-04 03:36:00,60.8,53.0,29.23,ENE,67,3.3,4.0,75,0.00,,,0.00,Rainwise IP-100,2013-08-04 08:36:00,
2013-08-04 03:41:00,60.8,53.0,29.23,NNE,22,2.1,4.0,75,0.00,,,0.00,Rainwise IP-100,2013-08-04 08:41:00,
2013-08-04 03:46:00,60.6,53.0,29.23,NNE,22,2.6,4.0,76,0.00,,,0.00,Rainwise IP-100,2013-08-04 08:46:00,
2013-08-04 03:51:00,60.3,53.0,29.24,NNE,22,4.2,4.2,76,0.00,,,0.00,Rainwise IP-100,2013-08-04 08:51:00,
2013-08-04 03:56:00,60.3,53.0,29.23,North,360,3.0,5.0,77,0.00,,,0.00,Rainwise IP-100,2013-08-04 08:56:00,
2013-08-04 04:01:00,60.3,53.0,29.23,NNE,22,3.0,5.0,77,0.00,,,0.00,Rainwise IP-100,2013-08-04 09:01:00,
2013-08-04 04:06:00,60.2,53.0,29.23,NNE,22,2.6,4.0,77,0.00,,,0.00,Rainwise IP-100,2013-08-04 09:06:00,
2013-08-04 04:11:00,60.2,53.0,29.22,NE,45,3.0,3.0,78,0.00,,,0.00,Rainwise IP-100,2013-08-04 09:11:00,
2013-08-04 04:16:00,60.3,53.0,29.22,NE,45,3.5,5.0,78,0.00,,,0.00,Rainwise IP-100,2013-08-04 09:16:00,
2013-08-04 04:21:00,60.2,53.0,29.22,NE,45,2.8,5.0,78,0.00,,,0.00,Rainwise IP-100,2013-08-04 09:21:00,
2013-08-04 04:26:00,59.9,53.0,29.22,NE,45,1.2,5.0,78,0.00,,,0.00,Rainwise IP-100,2013-08-04 09:26:00,
2013-08-04 04:31:00,59.6,53.0,29.22,NE,45,3.3,4.0,79,0.00,,,0.00,Rainwise IP-100,2013-08-04 09:31:00,
2013-08-04 04:36:00,59.4,53.0,29.22,NNE,22,3.0,5.0,79,0.00,,,0.00,Rainwise IP-100,2013-08-04 09:36:00,
2013-08-04 04:41:00,59.2,53.0,29.22,NNE,22,3.0,4.0,80,0.00,,,0.00,Rainwise IP-100,2013-08-04 09:41:00,
2013-08-04 04:46:00,59.1,53.0,29.22,ENE,67,1.9,4.0,81,0.00,,,0.00,Rainwise IP-100,2013-08-04 09:46:00,
2013-08-04 04:51:00,59.0,53.0,29.22,NNE,22,2.3,4.0,81,0.00,,,0.00,Rainwise IP-100,2013-08-04 09:51:00,
2013-08-04 04:56:00,58.9,53.0,29.22,NNE,22,3.3,4.0,81,0.00,,,0.00,Rainwise IP-100,2013-08-04 09:56:00,
2013-08-04 05:01:00,58.8,53.0,29.22,NE,45,3.7,5.0,81,0.00,,,0.00,Rainwise IP-100,2013-08-04 10:01:00,
2013-08-04 05:06:00,58.7,53.0,29.21,NNE,22,2.1,5.0,81,0.00,,,0.00,Rainwise IP-100,2013-08-04 10:06:00,
2013-08-04 05:11:00,58.6,53.0,29.21,NNW,337,1.2,4.0,82,0.00,,,0.00,Rainwise IP-100,2013-08-04 10:11:00,
2013-08-04 05:16:00,58.2,53.0,29.22,West,270,1.2,4.0,82,0.00,,,0.00,Rainwise IP-100,2013-08-04 10:16:00,
2013-08-04 05:21:00,58.0,53.0,29.22,NNE,22,2.6,6.0,82,0.00,,,0.00,Rainwise IP-100,2013-08-04 10:21:00,
2013-08-04 05:26:00,58.1,53.0,29.22,WNW,292,1.2,3.0,83,0.00,,,0.00,Rainwise IP-100,2013-08-04 10:26:00,
2013-08-04 05:31:00,57.9,53.0,29.23,NNW,337,2.8,2.8,84,0.00,,,0.00,Rainwise IP-100,2013-08-04 10:31:00,
2013-08-04 05:36:00,57.5,53.0,29.23,North,360,2.1,3.0,84,0.00,,,0.00,Rainwise IP-100,2013-08-04 10:36:00,
2013-08-04 05:41:00,57.3,52.0,29.24,NNE,22,2.6,3.0,84,0.00,,,0.00,Rainwise IP-100,2013-08-04 10:41:00,
2013-08-04 05:46:00,57.2,53.0,29.23,NNE,22,3.7,3.7,85,0.00,,,0.00,Rainwise IP-100,2013-08-04 10:46:00,
2013-08-04 05:51:00,57.2,53.0,29.23,North,360,2.3,4.0,85,0.00,,,0.00,Rainwise IP-100,2013-08-04 10:51:00,
2013-08-04 05:56:00,57.4,53.0,29.24,NE,45,2.8,5.0,86,0.00,,,0.00,Rainwise IP-100,2013-08-04 10:56:00,
2013-08-04 06:01:00,57.6,53.0,29.24,NNE,22,2.3,4.0,86,0.00,,,0.00,Rainwise IP-100,2013-08-04 11:01:00,
2013-08-04 06:06:00,57.5,53.0,29.24,NNE,22,2.8,4.0,86,0.00,,,0.00,Rainwise IP-100,2013-08-04 11:06:00,
2013-08-04 06:11:00,57.4,53.0,29.24,NNE,22,2.8,3.0,86,0.00,,,0.00,Rainwise IP-100,2013-08-04 11:11:00,
2013-08-04 06:16:00,57.7,53.0,29.24,ENE,67,4.9,4.9,86,0.00,,,0.00,Rainwise IP-100,2013-08-04 11:16:00,
2013-08-04 06:21:00,57.9,54.0,29.23,NE,45,2.8,5.0,86,0.00,,,0.00,Rainwise IP-100,2013-08-04 11:21:00,
2013-08-04 06:26:00,57.7,53.0,29.23,NE,45,3.3,4.0,86,0.00,,,0.00,Rainwise IP-100,2013-08-04 11:26:00,
2013-08-04 06:31:00,57.5,53.0,29.24,NNE,22,1.9,3.0,86,0.00,,,0.00,Rainwise IP-100,2013-08-04 11:31:00,
2013-08-04 06:36:00,57.5,53.0,29.23,NNE,22,0.0,3.0,86,0.00,,,0.00,Rainwise IP-100,2013-08-04 11:36:00,
2013-08-04 06:41:00,57.8,53.0,29.23,NE,45,3.0,3.0,86,0.00,,,0.00,Rainwise IP-100,2013-08-04 11:41:00,
2013-08-04 06:46:00,57.9,54.0,29.23,NNE,22,1.6,4.0,86,0.00,,,0.00,Rainwise IP-100,2013-08-04 11:46:00,
2013-08-04 06:51:00,58.0,54.0,29.23,NE,45,2.3,4.0,86,0.00,,,0.00,Rainwise IP-100,2013-08-04 11:51:00,
2013-08-04 06:56:00,58.1,54.0,29.23,NE,45,0.0,3.0,86,0.00,,,0.00,Rainwise IP-100,2013-08-04 11:56:00,
2013-08-04 07:01:00,58.2,54.0,29.22,NNE,22,1.9,2.0,86,0.00,,,0.00,Rainwise IP-100,2013-08-04 12:01:00,
2013-08-04 07:06:00,58.4,54.0,29.23,East,90,1.4,2.0,87,0.00,,,0.00,Rainwise IP-100,2013-08-04 12:06:00,
2013-08-04 07:11:00,58.5,55.0,29.23,NE,45,2.3,4.0,87,0.00,,,0.00,Rainwise IP-100,2013-08-04 12:11:00,
2013-08-04 07:16:00,58.7,55.0,29.24,NE,45,2.1,3.0,87,0.00,,,0.00,Rainwise IP-100,2013-08-04 12:16:00,
2013-08-04 07:21:00,58.9,55.0,29.24,ENE,67,0.0,3.0,87,0.00,,,0.00,Rainwise IP-100,2013-08-04 12:21:00,
2013-08-04 07:26:00,59.2,55.0,29.25,East,90,1.6,2.0,87,0.00,,,0.00,Rainwise IP-100,2013-08-04 12:26:00,
2013-08-04 07:31:00,59.6,55.0,29.24,ENE,67,3.3,3.3,87,0.00,,,0.00,Rainwise IP-100,2013-08-04 12:31:00,
2013-08-04 07:36:00,60.0,56.0,29.25,East,90,4.2,4.2,86,0.00,,,0.00,Rainwise IP-100,2013-08-04 12:36:00,
2013-08-04 07:41:00,60.4,56.0,29.24,ESE,112,5.1,6.0,84,0.00,,,0.00,Rainwise IP-100,2013-08-04 12:41:00,
2013-08-04 07:46:00,60.8,54.0,29.25,East,90,4.2,6.0,81,0.00,,,0.00,Rainwise IP-100,2013-08-04 12:46:00,
2013-08-04 07:51:00,60.9,54.0,29.25,East,90,4.9,6.0,80,0.00,,,0.00,Rainwise IP-100,2013-08-04 12:51:00,
2013-08-04 07:56:00,61.0,54.0,29.25,ESE,112,4.0,7.0,79,0.00,,,0.00,Rainwise IP-100,2013-08-04 12:56:00,
2013-08-04 08:01:00,61.1,54.0,29.26,ESE,112,3.5,5.0,79,0.00,,,0.00,Rainwise IP-100,2013-08-04 13:01:00,
2013-08-04 08:06:00,61.2,54.0,29.26,ESE,112,2.8,4.0,78,0.00,,,0.00,Rainwise IP-100,2013-08-04 13:06:00,
2013-08-04 08:11:00,61.5,54.0,29.26,ESE,112,4.2,5.0,78,0.00,,,0.00,Rainwise IP-100,2013-08-04 13:11:00,
2013-08-04 08:16:00,61.7,54.0,29.26,ESE,112,4.9,5.0,77,0.00,,,0.00,Rainwise IP-100,2013-08-04 13:16:00,
2013-08-04 08:21:00,61.7,54.0,29.26,SE,135,0.0,5.0,77,0.00,,,0.00,Rainwise IP-100,2013-08-04 13:21:00,
2013-08-04 08:26:00,62.5,55.0,29.26,SE,135,0.0,2.0,77,0.00,,,0.00,Rainwise IP-100,2013-08-04 13:26:00,
2013-08-04 08:31:00,63.7,55.0,29.26,SE,135,0.0,1.0,75,0.00,,,0.00,Rainwise IP-100,2013-08-04 13:31:00,
2013-08-04 08:36:00,64.6,56.0,29.26,SE,135,2.8,3.0,73,0.00,,,0.00,Rainwise IP-100,2013-08-04 13:36:00,
2013-08-04 08:41:00,64.2,54.0,29.26,ESE,112,0.0,4.0,72,0.00,,,0.00,Rainwise IP-100,2013-08-04 13:41:00,
2013-08-04 08:46:00,63.9,54.0,29.27,ESE,112,2.8,4.0,71,0.00,,,0.00,Rainwise IP-100,2013-08-04 13:46:00,
2013-08-04 08:51:00,63.7,54.0,29.27,ESE,112,0.0,3.0,71,0.00,,,0.00,Rainwise IP-100,2013-08-04 13:51:00,
2013-08-04 08:56:00,63.9,54.0,29.26,ESE,112,0.0,2.0,71,0.00,,,0.00,Rainwise IP-100,2013-08-04 13:56:00,
2013-08-04 09:01:00,65.0,54.0,29.26,ESE,112,0.0,1.0,70,0.00,,,0.00,Rainwise IP-100,2013-08-04 14:01:00,
2013-08-04 09:06:00,65.3,54.0,29.26,ESE,112,1.4,1.4,69,0.00,,,0.00,Rainwise IP-100,2013-08-04 14:06:00,
2013-08-04 09:11:00,64.6,54.0,29.26,ESE,112,2.1,2.1,69,0.00,,,0.00,Rainwise IP-100,2013-08-04 14:11:00,
2013-08-04 09:16:00,63.9,54.0,29.26,ESE,112,0.0,2.0,71,0.00,,,0.00,Rainwise IP-100,2013-08-04 14:16:00,
2013-08-04 09:21:00,64.1,54.0,29.25,ESE,112,1.9,2.0,72,0.00,,,0.00,Rainwise IP-100,2013-08-04 14:21:00,
2013-08-04 09:26:00,64.2,54.0,29.25,ESE,112,1.6,2.0,71,0.00,,,0.00,Rainwise IP-100,2013-08-04 14:26:00,
2013-08-04 09:31:00,64.0,54.0,29.25,SE,135,2.3,4.0,71,0.00,,,0.00,Rainwise IP-100,2013-08-04 14:31:00,
2013-08-04 09:36:00,63.8,54.0,29.25,SE,135,0.0,4.0,72,0.00,,,0.00,Rainwise IP-100,2013-08-04 14:36:00,
2013-08-04 09:41:00,64.0,54.0,29.25,SE,135,2.3,3.0,72,0.00,,,0.00,Rainwise IP-100,2013-08-04 14:41:00,
2013-08-04 09:46:00,64.4,54.0,29.24,SE,135,2.6,3.0,71,0.00,,,0.00,Rainwise IP-100,2013-08-04 14:46:00,
2013-08-04 09:51:00,64.5,54.0,29.24,SSE,157,0.0,3.0,71,0.00,,,0.00,Rainwise IP-100,2013-08-04 14:51:00,
2013-08-04 09:56:00,64.9,54.0,29.24,South,180,0.0,3.0,70,0.00,,,0.00,Rainwise IP-100,2013-08-04 14:56:00,
2013-08-04 10:01:00,64.8,54.0,29.24,SE,135,3.3,4.0,69,0.00,,,0.00,Rainwise IP-100,2013-08-04 15:01:00,
2013-08-04 10:06:00,64.5,54.0,29.24,SSE,157,1.4,5.0,70,0.00,,,0.00,Rainwise IP-100,2013-08-04 15:06:00,
2013-08-04 10:11:00,64.6,54.0,29.24,SE,135,3.3,4.0,71,0.00,,,0.00,Rainwise IP-100,2013-08-04 15:11:00,
2013-08-04 10:16:00,64.9,55.0,29.23,SE,135,0.0,5.0,71,0.00,,,0.00,Rainwise IP-100,2013-08-04 15:16:00,
2013-08-04 10:21:00,65.0,54.0,29.23,SSE,157,0.0,4.0,70,0.00,,,0.00,Rainwise IP-100,2013-08-04 15:21:00,
2013-08-04 10:26:00,65.5,55.0,29.23,South,180,0.0,1.0,70,0.00,,,0.00,Rainwise IP-100,2013-08-04 15:26:00,
2013-08-04 10:31:00,65.6,55.0,29.23,SSE,157,0.0,3.0,70,0.00,,,0.00,Rainwise IP-100,2013-08-04 15:31:00,
2013-08-04 10:36:00,65.7,55.0,29.23,NW,315,0.0,3.0,70,0.00,,,0.00,Rainwise IP-100,2013-08-04 15:36:00,
2013-08-04 10:41:00,66.0,56.0,29.22,SE,135,3.3,5.0,70,0.00,,,0.00,Rainwise IP-100,2013-08-04 15:41:00,
2013-08-04 10:46:00,65.6,55.0,29.22,SE,135,3.3,8.0,70,0.00,,,0.00,Rainwise IP-100,2013-08-04 15:46:00,
2013-08-04 10:51:00,65.3,54.0,29.22,SE,135,3.7,5.0,70,0.00,,,0.00,Rainwise IP-100,2013-08-04 15:51:00,
2013-08-04 10:56:00,65.3,54.0,29.22,ESE,112,2.6,7.0,69,0.00,,,0.00,Rainwise IP-100,2013-08-04 15:56:00,
2013-08-04 11:01:00,65.2,54.0,29.22,East,90,5.1,6.0,69,0.00,,,0.00,Rainwise IP-100,2013-08-04 16:01:00,
2013-08-04 11:06:00,65.3,54.0,29.22,SE,135,2.6,6.0,69,0.00,,,0.00,Rainwise IP-100,2013-08-04 16:06:00,
2013-08-04 11:11:00,65.7,54.0,29.22,SE,135,1.6,5.0,69,0.00,,,0.00,Rainwise IP-100,2013-08-04 16:11:00,
2013-08-04 11:16:00,66.4,56.0,29.22,ESE,112,4.7,4.7,69,0.00,,,0.00,Rainwise IP-100,2013-08-04 16:16:00,
2013-08-04 11:21:00,66.5,56.0,29.21,ESE,112,2.3,5.0,69,0.00,,,0.00,Rainwise IP-100,2013-08-04 16:21:00,
2013-08-04 11:26:00,66.1,55.0,29.22,East,90,2.8,6.0,69,0.00,,,0.00,Rainwise IP-100,2013-08-04 16:26:00,
2013-08-04 11:31:00,65.9,55.0,29.22,East,90,3.0,6.0,69,0.00,,,0.00,Rainwise IP-100,2013-08-04 16:31:00,
2013-08-04 11:36:00,65.8,54.0,29.22,ESE,112,2.8,5.0,69,0.00,,,0.00,Rainwise IP-100,2013-08-04 16:36:00,
2013-08-04 11:41:00,66.0,56.0,29.21,ESE,112,4.0,5.0,70,0.00,,,0.00,Rainwise IP-100,2013-08-04 16:41:00,
2013-08-04 11:46:00,66.1,56.0,29.21,ESE,112,2.6,4.0,70,0.00,,,0.00,Rainwise IP-100,2013-08-04 16:46:00,
2013-08-04 11:51:00,66.1,56.0,29.22,East,90,4.9,4.9,70,0.00,,,0.00,Rainwise IP-100,2013-08-04 16:51:00,
2013-08-04 11:56:00,66.1,56.0,29.22,ENE,67,4.0,5.0,70,0.00,,,0.00,Rainwise IP-100,2013-08-04 16:56:00,
2013-08-04 12:01:00,66.0,56.0,29.21,ENE,67,3.5,7.0,70,0.00,,,0.00,Rainwise IP-100,2013-08-04 17:01:00,
2013-08-04 12:06:00,66.1,56.0,29.21,ENE,67,3.7,6.0,71,0.00,,,0.00,Rainwise IP-100,2013-08-04 17:06:00,
2013-08-04 12:11:00,66.1,56.0,29.21,East,90,1.4,5.0,70,0.00,,,0.00,Rainwise IP-100,2013-08-04 17:11:00,
2013-08-04 12:16:00,66.2,56.0,29.21,East,90,2.3,4.0,70,0.00,,,0.00,Rainwise IP-100,2013-08-04 17:16:00,
2013-08-04 12:21:00,66.4,56.0,29.20,SE,135,1.6,4.0,70,0.00,,,0.00,Rainwise IP-100,2013-08-04 17:21:00,
2013-08-04 12:26:00,66.5,56.0,29.21,ESE,112,3.0,3.0,69,0.00,,,0.00,Rainwise IP-100,2013-08-04 17:26:00,
2013-08-04 12:31:00,66.5,56.0,29.20,SE,135,3.7,5.0,69,0.00,,,0.00,Rainwise IP-100,2013-08-04 17:31:00,
2013-08-04 12:36:00,66.5,56.0,29.20,ESE,112,2.3,5.0,70,0.00,,,0.00,Rainwise IP-100,2013-08-04 17:36:00,
2013-08-04 12:41:00,66.6,56.0,29.20,SE,135,2.6,5.0,69,0.00,,,0.00,Rainwise IP-100,2013-08-04 17:41:00,
2013-08-04 12:46:00,66.8,56.0,29.20,ENE,67,2.8,4.0,69,0.00,,,0.00,Rainwise IP-100,2013-08-04 17:46:00,
2013-08-04 12:51:00,67.0,56.0,29.21,NE,45,1.6,4.0,68,0.00,,,0.00,Rainwise IP-100,2013-08-04 17:51:00,
2013-08-04 12:56:00,67.0,56.0,29.21,ENE,67,1.9,5.0,68,0.00,,,0.00,Rainwise IP-100,2013-08-04 17:56:00,
2013-08-04 13:01:00,67.0,56.0,29.20,East,90,1.9,3.0,68,0.00,,,0.00,Rainwise IP-100,2013-08-04 18:01:00,
2013-08-04 13:06:00,67.1,56.0,29.20,East,90,1.9,2.0,67,0.00,,,0.00,Rainwise IP-100,2013-08-04 18:06:00,
2013-08-04 13:11:00,67.1,56.0,29.20,ENE,67,2.3,3.0,67,0.00,,,0.00,Rainwise IP-100,2013-08-04 18:11:00,
2013-08-04 13:16:00,67.2,56.0,29.20,East,90,2.3,3.0,68,0.00,,,0.00,Rainwise IP-100,2013-08-04 18:16:00,
2013-08-04 13:21:00,67.4,56.0,29.20,East,90,0.0,3.0,67,0.00,,,0.00,Rainwise IP-100,2013-08-04 18:21:00,
2013-08-04 13:26:00,68.1,56.0,29.21,East,90,0.0,0.0,65,0.00,,,0.00,Rainwise IP-100,2013-08-04 18:26:00,
2013-08-04 13:31:00,68.4,56.0,29.21,ENE,67,0.0,3.0,65,0.00,,,0.00,Rainwise IP-100,2013-08-04 18:31:00,
2013-08-04 13:36:00,68.4,56.0,29.21,NE,45,0.0,1.0,65,0.00,,,0.00,Rainwise IP-100,2013-08-04 18:36:00,
2013-08-04 13:41:00,68.9,56.0,29.20,NE,45,0.0,1.0,64,0.00,,,0.00,Rainwise IP-100,2013-08-04 18:41:00,
2013-08-04 13:46:00,69.5,57.0,29.20,NE,45,0.0,0.0,64,0.00,,,0.00,Rainwise IP-100,2013-08-04 18:46:00,
2013-08-04 13:51:00,70.1,57.0,29.20,NE,45,0.0,0.0,64,0.00,,,0.00,Rainwise IP-100,2013-08-04 18:51:00,
2013-08-04 13:56:00,70.6,57.0,29.20,ESE,112,0.0,1.0,64,0.00,,,0.00,Rainwise IP-100,2013-08-04 18:56:00,
2013-08-04 14:01:00,70.0,57.0,29.20,SSE,157,1.9,4.0,63,0.00,,,0.00,Rainwise IP-100,2013-08-04 19:01:00,
2013-08-04 14:06:00,68.9,56.0,29.19,SSE,157,1.2,4.0,65,0.00,,,0.00,Rainwise IP-100,2013-08-04 19:06:00,
2013-08-04 14:11:00,68.5,57.0,29.19,SSE,157,0.0,3.0,67,0.00,,,0.00,Rainwise IP-100,2013-08-04 19:11:00,
2013-08-04 14:16:00,68.9,57.0,29.19,SE,135,4.2,4.2,67,0.00,,,0.00,Rainwise IP-100,2013-08-04 19:16:00,
2013-08-04 14:21:00,69.0,57.0,29.19,South,180,1.2,5.0,67,0.00,,,0.00,Rainwise IP-100,2013-08-04 19:21:00,
2013-08-04 14:26:00,69.0,57.0,29.19,SSE,157,1.4,4.0,67,0.00,,,0.00,Rainwise IP-100,2013-08-04 19:26:00,
2013-08-04 14:31:00,69.4,57.0,29.19,SSE,157,1.2,4.0,67,0.00,,,0.00,Rainwise IP-100,2013-08-04 19:31:00,
2013-08-04 14:36:00,69.2,57.0,29.18,SE,135,1.9,4.0,67,0.00,,,0.00,Rainwise IP-100,2013-08-04 19:36:00,
2013-08-04 14:41:00,69.0,57.0,29.18,SE,135,3.5,4.0,68,0.00,,,0.00,Rainwise IP-100,2013-08-04 19:41:00,
2013-08-04 14:46:00,68.9,58.0,29.18,ESE,112,6.3,6.3,69,0.00,,,0.00,Rainwise IP-100,2013-08-04 19:46:00,
2013-08-04 14:51:00,69.0,57.0,29.19,ESE,112,0.0,6.0,68,0.00,,,0.00,Rainwise IP-100,2013-08-04 19:51:00,
2013-08-04 14:56:00,69.6,58.0,29.18,SE,135,2.3,4.0,67,0.00,,,0.00,Rainwise IP-100,2013-08-04 19:56:00,
2013-08-04 15:01:00,69.9,57.0,29.18,SE,135,2.3,5.0,65,0.00,,,0.00,Rainwise IP-100,2013-08-04 20:01:00,
2013-08-04 15:06:00,70.2,57.0,29.18,ENE,67,0.0,4.0,64,0.00,,,0.00,Rainwise IP-100,2013-08-04 20:06:00,
2013-08-04 15:11:00,71.0,57.0,29.18,South,180,0.0,1.0,63,0.00,,,0.00,Rainwise IP-100,2013-08-04 20:11:00,
2013-08-04 15:16:00,71.3,57.0,29.18,SE,135,0.0,2.0,61,0.00,,,0.00,Rainwise IP-100,2013-08-04 20:16:00,
2013-08-04 15:21:00,71.4,57.0,29.18,East,90,0.0,3.0,61,0.00,,,0.00,Rainwise IP-100,2013-08-04 20:21:00,
2013-08-04 15:26:00,71.9,57.0,29.18,ESE,112,1.2,2.0,61,0.00,,,0.00,Rainwise IP-100,2013-08-04 20:26:00,
2013-08-04 15:31:00,71.6,57.0,29.17,SSE,157,1.2,4.0,60,0.00,,,0.00,Rainwise IP-100,2013-08-04 20:31:00,
2013-08-04 15:36:00,71.3,56.0,29.17,SE,135,0.0,3.0,60,0.00,,,0.00,Rainwise IP-100,2013-08-04 20:36:00,
2013-08-04 15:41:00,71.9,57.0,29.17,ESE,112,0.0,2.0,60,0.00,,,0.00,Rainwise IP-100,2013-08-04 20:41:00,
2013-08-04 15:46:00,72.3,57.0,29.17,SSE,157,2.3,4.0,59,0.00,,,0.00,Rainwise IP-100,2013-08-04 20:46:00,
2013-08-04 15:51:00,72.1,57.0,29.17,SE,135,1.6,3.0,59,0.00,,,0.00,Rainwise IP-100,2013-08-04 20:51:00,
2013-08-04 15:56:00,72.4,57.0,29.16,SE,135,1.9,3.0,59,0.00,,,0.00,Rainwise IP-100,2013-08-04 20:56:00,
2013-08-04 16:01:00,73.0,57.0,29.16,ESE,112,2.3,5.0,57,0.00,,,0.00,Rainwise IP-100,2013-08-04 21:01:00,
2013-08-04 16:06:00,72.2,56.0,29.17,ESE,112,4.2,4.2,57,0.00,,,0.00,Rainwise IP-100,2013-08-04 21:06:00,
2013-08-04 16:11:00,71.0,55.0,29.16,ESE,112,1.2,5.0,58,0.00,,,0.00,Rainwise IP-100,2013-08-04 21:11:00,
2013-08-04 16:16:00,71.0,55.0,29.16,SE,135,2.1,4.0,58,0.00,,,0.00,Rainwise IP-100,2013-08-04 21:16:00,
2013-08-04 16:21:00,71.8,56.0,29.16,ESE,112,1.4,3.0,59,0.00,,,0.00,Rainwise IP-100,2013-08-04 21:21:00,
2013-08-04 16:26:00,73.4,57.0,29.16,SSW,202,0.0,2.0,58,0.00,,,0.00,Rainwise IP-100,2013-08-04 21:26:00,
2013-08-04 16:31:00,74.7,57.0,29.16,East,90,1.6,2.0,54,0.00,,,0.00,Rainwise IP-100,2013-08-04 21:31:00,
2013-08-04 16:36:00,75.0,56.0,29.16,West,270,0.0,2.0,52,0.00,,,0.00,Rainwise IP-100,2013-08-04 21:36:00,
2013-08-04 16:41:00,74.5,55.0,29.16,SSW,202,0.0,3.0,51,0.00,,,0.00,Rainwise IP-100,2013-08-04 21:41:00,
2013-08-04 16:46:00,74.4,56.0,29.16,SW,225,1.6,3.0,52,0.00,,,0.00,Rainwise IP-100,2013-08-04 21:46:00,
2013-08-04 16:51:00,74.5,56.0,29.16,NE,45,1.6,2.0,52,0.00,,,0.00,Rainwise IP-100,2013-08-04 21:51:00,
2013-08-04 16:56:00,74.0,56.0,29.16,ESE,112,1.9,3.0,53,0.00,,,0.00,Rainwise IP-100,2013-08-04 21:56:00,
2013-08-04 17:01:00,73.2,56.0,29.15,WNW,292,0.0,2.0,54,0.00,,,0.00,Rainwise IP-100,2013-08-04 22:01:00,
2013-08-04 17:06:00,72.7,56.0,29.15,WNW,292,0.0,3.0,56,0.00,,,0.00,Rainwise IP-100,2013-08-04 22:06:00,
2013-08-04 17:11:00,72.2,56.0,29.16,SW,225,0.0,3.0,56,0.00,,,0.00,Rainwise IP-100,2013-08-04 22:11:00,
2013-08-04 17:16:00,71.9,55.0,29.15,WSW,247,2.8,2.8,56,0.00,,,0.00,Rainwise IP-100,2013-08-04 22:16:00,
2013-08-04 17:21:00,71.8,54.0,29.15,SSW,202,0.0,2.0,55,0.00,,,0.00,Rainwise IP-100,2013-08-04 22:21:00,
2013-08-04 17:26:00,71.7,54.0,29.15,SW,225,0.0,3.0,55,0.00,,,0.00,Rainwise IP-100,2013-08-04 22:26:00,
2013-08-04 17:31:00,71.6,55.0,29.14,SSW,202,0.0,2.0,56,0.00,,,0.00,Rainwise IP-100,2013-08-04 22:31:00,
2013-08-04 17:36:00,71.6,55.0,29.15,NNE,22,0.0,2.0,56,0.00,,,0.00,Rainwise IP-100,2013-08-04 22:36:00,
2013-08-04 17:41:00,71.9,55.0,29.15,WNW,292,0.0,3.0,56,0.00,,,0.00,Rainwise IP-100,2013-08-04 22:41:00,
2013-08-04 17:46:00,72.0,55.0,29.15,SSW,202,0.0,1.0,56,0.00,,,0.00,Rainwise IP-100,2013-08-04 22:46:00,
2013-08-04 17:51:00,72.1,56.0,29.14,SSE,157,0.0,1.0,57,0.00,,,0.00,Rainwise IP-100,2013-08-04 22:51:00,
2013-08-04 17:56:00,72.0,56.0,29.14,NNE,22,0.0,2.0,57,0.00,,,0.00,Rainwise IP-100,2013-08-04 22:56:00,
2013-08-04 18:01:00,72.0,54.0,29.14,SW,225,0.0,0.0,55,0.00,,,0.00,Rainwise IP-100,2013-08-04 23:01:00,
2013-08-04 18:06:00,72.2,55.0,29.14,SW,225,0.0,1.0,55,0.00,,,0.00,Rainwise IP-100,2013-08-04 23:06:00,
2013-08-04 18:11:00,72.4,54.0,29.13,SW,225,0.0,0.0,54,0.00,,,0.00,Rainwise IP-100,2013-08-04 23:11:00,
2013-08-04 18:16:00,72.6,54.0,29.13,SW,225,0.0,0.0,53,0.00,,,0.00,Rainwise IP-100,2013-08-04 23:16:00,
2013-08-04 18:21:00,72.7,54.0,29.13,SW,225,0.0,0.0,52,0.00,,,0.00,Rainwise IP-100,2013-08-04 23:21:00,
2013-08-04 18:26:00,72.8,53.0,29.12,SW,225,0.0,0.0,51,0.00,,,0.00,Rainwise IP-100,2013-08-04 23:26:00,
2013-08-04 18:31:00,72.8,53.0,29.12,SW,225,0.0,0.0,51,0.00,,,0.00,Rainwise IP-100,2013-08-04 23:31:00,
2013-08-04 18:36:00,72.8,53.0,29.12,SW,225,0.0,0.0,50,0.00,,,0.00,Rainwise IP-100,2013-08-04 23:36:00,
2013-08-04 18:41:00,72.7,53.0,29.12,SW,225,0.0,0.0,50,0.00,,,0.00,Rainwise IP-100,2013-08-04 23:41:00,
2013-08-04 18:46:00,72.8,53.0,29.11,SW,225,0.0,0.0,49,0.00,,,0.00,Rainwise IP-100,2013-08-04 23:46:00,
2013-08-04 18:51:00,72.5,52.0,29.12,SE,135,2.8,0.0,48,0.00,,,0.00,Rainwise IP-100,2013-08-04 23:51:00,
2013-08-04 18:57:00,71.2,51.0,29.11,SE,135,2.3,4.0,49,0.00,,,0.00,Rainwise IP-100,2013-08-04 23:57:00,
2013-08-04 19:02:00,70.2,50.0,29.11,SE,135,1.6,5.0,50,0.00,,,0.00,Rainwise IP-100,2013-08-05 00:02:00,
2013-08-04 19:07:00,70.1,51.0,29.11,ESE,112,1.6,4.0,51,0.00,,,0.00,Rainwise IP-100,2013-08-05 00:07:00,
2013-08-04 19:12:00,70.1,51.0,29.11,SE,135,3.5,6.0,51,0.00,,,0.00,Rainwise IP-100,2013-08-05 00:12:00,
2013-08-04 19:17:00,69.9,51.0,29.11,SE,135,3.3,5.0,52,0.00,,,0.00,Rainwise IP-100,2013-08-05 00:17:00,
2013-08-04 19:22:00,69.9,52.0,29.10,SE,135,2.8,5.0,53,0.00,,,0.00,Rainwise IP-100,2013-08-05 00:22:00,
2013-08-04 19:27:00,69.9,53.0,29.10,ESE,112,3.7,6.0,54,0.00,,,0.00,Rainwise IP-100,2013-08-05 00:27:00,
2013-08-04 19:32:00,69.8,53.0,29.10,ESE,112,6.5,7.0,55,0.00,,,0.00,Rainwise IP-100,2013-08-05 00:32:00,
2013-08-04 19:37:00,69.8,53.0,29.10,ESE,112,5.6,7.0,56,0.00,,,0.00,Rainwise IP-100,2013-08-05 00:37:00,
2013-08-04 19:42:00,70.0,54.0,29.10,SE,135,4.2,8.0,58,0.00,,,0.00,Rainwise IP-100,2013-08-05 00:42:00,
2013-08-04 19:47:00,70.1,55.0,29.10,SE,135,3.7,8.0,59,0.00,,,0.00,Rainwise IP-100,2013-08-05 00:47:00,
2013-08-04 19:52:00,69.9,55.0,29.09,ESE,112,5.8,8.0,59,0.00,,,0.00,Rainwise IP-100,2013-08-05 00:52:00,
2013-08-04 19:57:00,69.7,54.0,29.09,ESE,112,6.8,7.0,58,0.00,,,0.00,Rainwise IP-100,2013-08-05 00:57:00,
2013-08-04 20:02:00,69.6,54.0,29.08,SE,135,5.4,7.0,58,0.00,,,0.00,Rainwise IP-100,2013-08-05 01:02:00,
2013-08-04 20:07:00,69.5,54.0,29.08,SE,135,6.1,8.0,59,0.00,,,0.00,Rainwise IP-100,2013-08-05 01:07:00,
2013-08-04 20:12:00,69.5,54.0,29.08,ESE,112,7.0,8.0,59,0.00,,,0.00,Rainwise IP-100,2013-08-05 01:12:00,
2013-08-04 20:17:00,69.4,54.0,29.08,SE,135,3.5,8.0,60,0.00,,,0.00,Rainwise IP-100,2013-08-05 01:17:00,
2013-08-04 20:22:00,69.2,56.0,29.08,SE,135,4.9,9.0,62,0.00,,,0.00,Rainwise IP-100,2013-08-05 01:22:00,
2013-08-04 20:27:00,69.1,56.0,29.08,SSE,157,4.0,8.0,63,0.00,,,0.00,Rainwise IP-100,2013-08-05 01:27:00,
2013-08-04 20:32:00,68.9,56.0,29.08,SE,135,4.7,8.0,64,0.00,,,0.00,Rainwise IP-100,2013-08-05 01:32:00,
2013-08-04 20:37:00,68.8,56.0,29.08,SE,135,5.1,10.0,65,0.00,,,0.00,Rainwise IP-100,2013-08-05 01:37:00,
2013-08-04 20:42:00,68.5,56.0,29.08,ESE,112,7.7,10.0,65,0.00,,,0.00,Rainwise IP-100,2013-08-05 01:42:00,
2013-08-04 20:47:00,68.3,56.0,29.08,SE,135,4.7,10.0,66,0.00,,,0.00,Rainwise IP-100,2013-08-05 01:47:00,
2013-08-04 20:52:00,68.2,56.0,29.08,SSE,157,0.0,6.0,67,0.00,,,0.00,Rainwise IP-100,2013-08-05 01:52:00,
2013-08-04 20:57:00,68.2,56.0,29.08,SE,135,1.9,6.0,67,0.00,,,0.00,Rainwise IP-100,2013-08-05 01:57:00,
2013-08-04 21:02:00,68.1,57.0,29.08,SSE,157,2.1,4.0,69,0.00,,,0.00,Rainwise IP-100,2013-08-05 02:02:00,
2013-08-04 21:07:00,68.0,57.0,29.08,South,180,0.0,4.0,69,0.00,,,0.00,Rainwise IP-100,2013-08-05 02:07:00,
2013-08-04 21:12:00,67.7,57.0,29.08,SE,135,1.2,3.0,69,0.00,,,0.00,Rainwise IP-100,2013-08-05 02:12:00,
2013-08-04 21:17:00,67.5,57.0,29.08,SE,135,2.1,3.0,69,0.00,,,0.00,Rainwise IP-100,2013-08-05 02:17:00,
2013-08-04 21:22:00,67.3,56.0,29.09,SE,135,0.0,4.0,69,0.00,,,0.00,Rainwise IP-100,2013-08-05 02:22:00,
2013-08-04 21:27:00,67.1,57.0,29.08,SE,135,1.2,4.0,70,0.00,,,0.00,Rainwise IP-100,2013-08-05 02:27:00,
2013-08-04 21:32:00,67.2,57.0,29.08,SE,135,3.7,5.0,71,0.00,,,0.00,Rainwise IP-100,2013-08-05 02:32:00,
2013-08-04 21:37:00,67.3,57.0,29.08,ESE,112,6.5,7.0,72,0.00,,,0.00,Rainwise IP-100,2013-08-05 02:37:00,
2013-08-04 21:42:00,67.2,57.0,29.08,ESE,112,7.0,8.0,71,0.00,,,0.00,Rainwise IP-100,2013-08-05 02:42:00,
2013-08-04 21:47:00,67.2,57.0,29.08,SE,135,3.3,7.0,71,0.00,,,0.00,Rainwise IP-100,2013-08-05 02:47:00,
2013-08-04 21:52:00,67.1,57.0,29.08,SE,135,4.2,7.0,71,0.00,,,0.00,Rainwise IP-100,2013-08-05 02:52:00,
2013-08-04 21:57:00,67.1,57.0,29.08,ESE,112,6.5,7.0,72,0.00,,,0.00,Rainwise IP-100,2013-08-05 02:57:00,
2013-08-04 22:02:00,67.0,58.0,29.08,SE,135,3.0,6.0,73,0.00,,,0.00,Rainwise IP-100,2013-08-05 03:02:00,
2013-08-04 22:07:00,66.9,58.0,29.08,SE,135,4.2,5.0,73,0.00,,,0.00,Rainwise IP-100,2013-08-05 03:07:00,
2013-08-04 22:12:00,66.8,58.0,29.08,SE,135,1.6,5.0,74,0.00,,,0.00,Rainwise IP-100,2013-08-05 03:12:00,
2013-08-04 22:17:00,66.6,58.0,29.08,SE,135,1.4,4.0,74,0.00,,,0.00,Rainwise IP-100,2013-08-05 03:17:00,
2013-08-04 22:22:00,66.4,58.0,29.08,SSE,157,3.0,4.0,75,0.00,,,0.00,Rainwise IP-100,2013-08-05 03:22:00,
2013-08-04 22:27:00,66.3,58.0,29.08,SE,135,2.6,4.0,75,0.00,,,0.00,Rainwise IP-100,2013-08-05 03:27:00,
2013-08-04 22:32:00,66.2,58.0,29.08,ESE,112,0.0,5.0,75,0.00,,,0.00,Rainwise IP-100,2013-08-05 03:32:00,
2013-08-04 22:37:00,66.2,58.0,29.08,ESE,112,0.0,4.0,76,0.00,,,0.00,Rainwise IP-100,2013-08-05 03:37:00,
2013-08-04 22:42:00,66.1,58.0,29.08,SE,135,3.5,4.0,76,0.00,,,0.00,Rainwise IP-100,2013-08-05 03:42:00,
2013-08-04 22:47:00,66.1,58.0,29.08,SE,135,1.9,4.0,76,0.00,,,0.00,Rainwise IP-100,2013-08-05 03:47:00,
2013-08-04 22:52:00,66.2,58.0,29.08,ESE,112,3.7,7.0,76,0.00,,,0.00,Rainwise IP-100,2013-08-05 03:52:00,
2013-08-04 22:57:00,66.2,58.0,29.08,SE,135,5.8,7.0,75,0.00,,,0.00,Rainwise IP-100,2013-08-05 03:57:00,
2013-08-04 23:01:00,66.2,58.0,29.07,SE,135,6.3,7.0,75,0.00,,,0.00,Rainwise IP-100,2013-08-05 04:01:00,
2013-08-04 23:06:00,66.1,57.0,29.07,SE,135,4.4,7.0,75,0.00,,,0.00,Rainwise IP-100,2013-08-05 04:06:00,
2013-08-04 23:11:00,66.0,57.0,29.07,SE,135,4.4,9.0,74,0.00,,,0.00,Rainwise IP-100,2013-08-05 04:11:00,
2013-08-04 23:16:00,66.0,57.0,29.06,SE,135,6.1,9.0,75,0.00,,,0.00,Rainwise IP-100,2013-08-05 04:16:00,
2013-08-04 23:21:00,66.0,57.0,29.06,SSE,157,4.9,8.0,75,0.00,,,0.00,Rainwise IP-100,2013-08-05 04:21:00,
2013-08-04 23:26:00,66.0,58.0,29.05,SSE,157,6.8,6.8,76,0.00,,,0.00,Rainwise IP-100,2013-08-05 04:26:00,
2013-08-04 23:31:00,65.9,58.0,29.05,SE,135,4.2,7.0,76,0.00,,,0.00,Rainwise IP-100,2013-08-05 04:31:00,
2013-08-04 23:36:00,65.8,58.0,29.05,East,90,0.0,6.0,77,0.00,,,0.00,Rainwise IP-100,2013-08-05 04:36:00,
2013-08-04 23:41:00,65.6,58.0,29.04,ESE,112,1.2,5.0,78,0.00,,,0.00,Rainwise IP-100,2013-08-05 04:41:00,
2013-08-04 23:46:00,65.5,58.0,29.04,ESE,112,2.3,6.0,78,0.00,,,0.00,Rainwise IP-100,2013-08-05 04:46:00,
2013-08-04 23:51:00,65.4,58.0,29.04,South,180,4.0,6.0,78,0.00,,,0.00,Rainwise IP-100,2013-08-05 04:51:00,
2013-08-04 23:56:00,65.3,57.0,29.03,SE,135,3.5,7.0,78,0.00,,,0.00,Rainwise IP-100,2013-08-05 04:56:00,